Tracking 19280 objects as of 15-Nov-2018
HD Live streaming from Space Station
objects crossing your sky now

FLOCK 3P 40

Track FLOCK 3P 40 now!
10-day predictions
FLOCK 3P 40 is classified as:


NORAD ID: 42010
Int'l Code: 2017-008BQ
Perigee: 493.4 km
Apogee: 503.5 km
Inclination: 97.4 °
Period: 94.4 minutes
Semi major axis: 6869 km
RCS: Unknown
Launch date: February 15, 2017
Source: United States (US)
Launch site: SRIHARIKOTA (SRI)
aabbcc
Your satellite tracking list
Your tracking list is empty




NASA's NSSDC Master Catalog

Two Line Element Set (TLE):
1 42010U 17008BQ  18319.18831623  .00001676  00000-0  70439-4 0  9994
2 42010  97.4339  23.1517 0007345 192.5270 167.5786 15.24815918 96355
Source of the keplerian elements: AFSPC